{"data":{"norad_id":61903,"intl_designator":"2024-205K","name":"2024-205K","alt_names":[],"object_type":"PAYLOAD","status":"ACTIVE","operator":null,"country":"PRC","launch_date":"2024-11-11","launch_site_code":"JSC","launch_vehicle":null,"mission":null,"orbit_class":"UNKNOWN","rcs_meters":null,"size_class":null,"mass_kg":null,"dimensions":null,"purposes":[],"wikipedia_slug":null,"has_3d_model":false,"image_url":null,"decayed_at":null,"tle_current":{"epoch":"2026-05-25T04:06:32.735808Z","epoch_age_seconds":50510,"freshness":"FRESH","line1":"1 61903U 24205K   26145.17121222  .00014253  00000+0  49171-3 0  9997","line2":"2 61903  97.4108 222.1876 0011400 118.4685 241.7705 15.30026368 85123","mean_motion":15.30026368,"eccentricity":0.00114,"inclination_deg":97.4108,"raan_deg":222.1876,"arg_perigee_deg":118.4685,"mean_anomaly_deg":241.7705,"bstar":0.00049171,"rev_number":8512,"period_min":94.116025064478,"perigee_km":467.92013987157,"apogee_km":483.54696473081,"semimajor_km":6853.8705523012,"source":"CELESTRAK","updated_at":"2026-05-25T13:38:02.626128Z"}}}